Location: Elaine Barite Prospect
(34.1431°N, 106.7922°W)
Time: 11:03:05
(UTC+00:00)

Cosmos 1758 Rocket - Pass Details

Date: 13 December 2025
Orbit: 595 x 629 km, 82.5° (Epoch: 14 January)

Event Time Altitude Azimuth Distance (km) Brightness Sun altitude
Rises 12:35:52 0° 184° (S) 2,893 7.2 -17.8°
Reaches altitude 10° 12:38:06 10° 184° (S) 1,987 6.3 -17.4°
Maximum altitude 12:42:30 87° 96° (E) 626 3.5 -16.5°
Drops below altitude 10° 12:46:55 10° 7° (N) 1,982 6.0 -15.6°
Sets 12:49:08 0° 7° (N) 2,886 6.9 -15.2°
